Regional Weather Roundup
Issued by NWS Burlington, VT

Home | Current Version | Previous Version | Text Only | Print | Product List | Glossary On
Versions: 1 2 3 4 5 6 7 8 9 10 11 12 13 14 15 16 17 18 19 20 21 22 23 24 25 26 27 28 29 30 31 32 33 34 35 36 37 38 39 40 41 42 43 44 45 46 47 48 49 50
000
ASUS41 KBTV 240710
RWRBTV
VERMONT REGIONAL WEATHER ROUNDUP
NATIONAL WEATHER SERVICE BURLINGTON VT
300 AM EDT SUN SEP 24 2017

NOTE: "FAIR" INDICATES FEW OR NO CLOUDS BELOW 12,000 FEET WITH NO
SIGNIFICANT WEATHER AND/OR OBSTRUCTIONS TO VISIBILITY.

* THESE REPORTS ARE NOT UNDER NWS QUALITY CONTROL AND/OR DO NOT
  REPORT WEATHER SUCH AS PRECIPITATION AND FOG.

VTZ001>019-240800-
_____VERMONT_____


CITY           SKY/WX    TMP DP  RH WIND       PRES   REMARKS
BURLINGTON     CLEAR     64  62  93 CALM      30.07S
MONTPELIER     FOG       57  57 100 CALM      30.13S VSB 1/4
MORRISVILLE    FOG       57  56  96 CALM      30.11S VSB 1/4
ST. JOHNSBURY*   N/A     60  60 100 MISG      30.08S
LYNDONVILLE*   FOG       59  59  97 CALM      30.12S VSB 1/4
MIDDLEBURY*    FAIR      60  59  97 CALM      30.08S
RUTLAND*       CLEAR     60  58  92 SE6       30.10S
SPRINGFIELD    CLEAR     58  56  93 CALM      30.09S
HIGHGATE*      FAIR      62  61  98 S3        30.05S
NEWPORT*       FAIR      59  59  97 SW5       30.09F
BENNINGTON     CLEAR     57  55  93 CALM      30.10S
SUTTON*          N/A     59 N/A N/A MISG        N/A

_____LAKE CHAMPLAIN_____


CITY           SKY/WX    TMP DP  RH WIND       PRES   REMARKS

$$

NYZ007-026>031-035-052-083-087-240800-
_____NORTHERN NEW YORK_____


CITY           SKY/WX    TMP DP  RH WIND       PRES   REMARKS
PLATTSBURGH    CLEAR     59  57  93 CALM      30.05S
SARANAC LAKE   MOCLDY    53  53 100 CALM      30.13S
MASSENA        CLEAR     66  62  87 SW5       30.06S
OGDENSBURG*    FAIR      61  60  95 CALM      30.06F FOG
POTSDAM*       CLEAR     66  66 100 SW6       30.07F
WATERTOWN      CLEAR     64  61  90 CALM      30.09S
FT DRUM        PTCLDY    63  60  91 S5        30.09F
ALBANY         CLEAR     63  58  83 CALM      30.08R
GLENS FALLS    FOG       57  56  96 CALM      30.08S VSB 3/4

$$
NHZ002-005-011-240800-
_____NEW HAMPSHIRE_____


CITY           SKY/WX    TMP DP  RH WIND       PRES   REMARKS
LEBANON        CLEAR     59  57  93 CALM      30.08S FOG
KEENE          CLEAR     57  56  96 CALM      30.08S FOG
MT WASHINGTON  PTCLDY    57  48  72 W9          N/A
PLYMOUTH       FAIR      56  55  96 CALM      30.06S FOG
WHITEFIELD     CLEAR     54  51  90 CALM      30.10F

$$

_____REGIONAL QUEBEC LOCATIONS_____


CITY           SKY/WX    TMP DP  RH WIND       PRES   REMARKS
MONTREAL       PTCLDY    70  61  73 SW7       30.02F
QUEBEC CITY    PTCLDY    63  61  94 CALM      29.99F
SHERBROOKE     CLEAR     57  57 100 E2        30.06F

_____REGIONAL ONTARIO LOCATIONS_____


CITY           SKY/WX    TMP DP  RH WIND       PRES   REMARKS
OTTAWA         PTCLDY    66  64  94 W9        30.04F

______KEY______
VSB  - VISIBILITY IN MILES
WCI  - WIND CHILL INDEX
HX   - HEAT INDEX
$$
NNNN




USA.gov is the U.S. government's official web portal to all federal, state and local government web resources and services.